This demonstration page uses our WeatherBlox Daily Observations layout. Learn more.

Left ArrowRight Arrow

39.51506, -84.39828

Hourly Observations for January 10, 2019

Temp ( °F °C ) Dew Point ( °F °C ) Humidity (%) Winds ( mph kmh ) Pressure ( in mb ) Visibility ( mi km ) Precip ( " mm )
12:15 am 00:15 Cloudy with Light Snow 22 -5.3 12 -11 65 65 NNW 9 15 30.36 1028 10 16 0.00 0.00
12:35 am 00:35 Cloudy with Light Snow 22 -5.3 12 -11.3 63 63 NW 7 11 30.36 1028 10 16 0.00 0.00
12:55 am 00:55 Cloudy with Light Snow 22 -5.3 12 -11.2 64 64 NW 10 17 30.36 1028 10 16 0.00 0.00
1:15 am 01:15 Cloudy with Light Snow 23 -5.2 12 -11.2 63 63 NW 8 13 30.36 1028 10 16 0.00 0.00
1:35 am 01:35 Cloudy 23 -5.2 11 -11.4 62 62 NW 6 9 30.36 1028 10 16 0.00 0.00
1:55 am 01:55 Cloudy with Light Snow 22 -5.3 12 -11.1 64 64 WNW 9 15 30.36 1028 10 16 0.00 0.00
2:15 am 02:15 Cloudy with Light Snow 22 -5.3 12 -10.9 65 65 NW 10 17 30.36 1028 10 16 0.00 0.00
2:35 am 02:35 Cloudy with Light Snow 22 -5.5 12 -11.1 65 65 WNW 8 13 30.36 1028 10 16 0.00 0.00
2:55 am 02:55 Cloudy 22 -5.4 13 -10.7 67 67 WNW 6 9 30.39 1029 10 16 0.00 0.00
3:15 am 03:15 Cloudy 22 -5.4 13 -10.7 67 67 WNW 9 15 30.39 1029 10 16 0.00 0.00
3:35 am 03:35 Cloudy with Light Snow 22 -5.4 13 -10.5 68 68 WNW 8 13 30.39 1029 10 16 0.00 0.00
3:55 am 03:55 Cloudy with Light Snow 22 -5.4 13 -10.4 68 68 NW 7 11 30.39 1029 10 16 0.00 0.00
4:15 am 04:15 Cloudy with Light Snow 22 -5.4 13 -10.5 68 68 WNW 7 11 30.39 1029 10 16 0.00 0.00
4:35 am 04:35 Cloudy 22 -5.4 13 -10.7 67 67 WNW 7 11 30.39 1029 10 16 0.00 0.00
4:55 am 04:55 Cloudy with Light Snow 22 -5.4 13 -10.7 67 67 W 7 11 30.36 1028 10 16 0.00 0.00
5:15 am 05:15 Cloudy 22 -5.3 13 -10.6 67 67 WNW 5 7 30.36 1028 10 16 0.00 0.00
5:35 am 05:35 Cloudy with Light Snow 22 -5.4 13 -10.3 69 69 W 8 13 30.36 1028 10 16 0.00 0.00
5:55 am 05:55 Cloudy with Light Snow 22 -5.5 13 -10.3 69 69 W 6 9 30.39 1029 10 16 0.00 0.00
6:15 am 06:15 Cloudy with Light Snow 22 -5.4 14 -10.2 69 69 W 8 13 30.39 1029 10 16 0.00 0.00
6:35 am 06:35 Cloudy with Light Snow 22 -5.4 14 -10.2 69 69 W 8 13 30.39 1029 10 16 0.00 0.00
6:55 am 06:55 Cloudy with Light Snow 22 -5.3 14 -10.1 69 69 W 9 15 30.39 1029 10 16 0.00 0.00
7:15 am 07:15 Cloudy with Light Snow 22 -5.3 14 -10.1 69 69 W 7 11 30.39 1029 10 16 0.00 0.00
7:35 am 07:35 Cloudy with Light Snow 22 -5.3 14 -10.2 69 69 W 9 15 30.39 1029 10 16 0.00 0.00
7:55 am 07:55 Cloudy with Light Snow 23 -5.2 14 -10 69 69 WSW 8 13 30.39 1029 10 16 0.00 0.00
8:15 am 08:15 Cloudy with Light Snow 23 -5.2 14 -9.9 70 70 W 9 15 30.42 1030 10 16 0.00 0.00
8:35 am 08:35 Cloudy with Light Snow 23 -5.1 14 -9.8 70 70 WNW 5 7 30.42 1030 10 16 0.00 0.00
8:55 am 08:55 Cloudy with Light Snow 23 -4.9 15 -9.5 70 70 W 8 13 30.42 1030 7 11 0.00 0.00
9:15 am 09:15 Cloudy with Light Snow 23 -4.9 15 -9.3 72 72 W 7 11 30.42 1030 10 16 0.00 0.00
9:35 am 09:35 Cloudy with Light Snow 24 -4.6 16 -8.9 72 72 W 8 13 30.45 1031 10 16 0.00 0.00
9:55 am 09:55 Cloudy with Light Snow 24 -4.7 16 -8.9 73 73 W 8 13 30.45 1031 7 11 0.00 0.00
10:15 am 10:15 Cloudy with Light Snow 24 -4.5 16 -8.7 73 73 WNW 6 9 30.45 1031 10 16 0.00 0.00
10:35 am 10:35 Cloudy with Light Snow 24 -4.3 17 -8.5 73 73 W 9 15 30.45 1031 10 16 0.00 0.00
10:55 am 10:55 Cloudy with Light Snow 24 -4.3 17 -8.3 74 74 W 8 13 30.45 1031 10 16 0.00 0.00
11:15 am 11:15 Cloudy with Light Snow 24 -4.2 17 -8.3 73 73 W 8 13 30.45 1031 10 16 0.00 0.00
11:35 am 11:35 Cloudy with Light Snow 25 -3.9 17 -8.4 71 71 WNW 9 15 30.45 1031 10 16 0.00 0.00
11:55 am 11:55 Cloudy with Light Snow 25 -3.7 16 -8.7 69 69 NW 9 15 30.39 1029 10 16 0.00 0.00
12:15 pm 12:15 Cloudy 26 -3.5 16 -8.8 67 67 NW 8 13 30.39 1029 10 16 0.00 0.00
12:35 pm 12:35 Cloudy 26 -3.3 16 -9 65 65 NW 8 13 30.39 1029 10 16 0.00 0.00
12:55 pm 12:55 Cloudy 26 -3.2 16 -9.1 64 64 NW 9 15 30.36 1028 10 16 0.00 0.00
1:15 pm 13:15 Cloudy 26 -3.2 16 -8.9 65 65 NNW 9 15 30.36 1028 10 16 0.00 0.00
1:35 pm 13:35 Cloudy 26 -3.1 16 -8.7 66 66 NW 10 17 30.36 1028 10 16 0.00 0.00
1:55 pm 13:55 Cloudy 27 -2.9 16 -8.7 65 65 WNW 9 15 30.36 1028 10 16 0.00 0.00
2:15 pm 14:15 Cloudy 27 -2.9 17 -8.5 66 66 NNW 8 13 30.36 1028 10 16 0.00 0.00
2:35 pm 14:35 Cloudy 27 -3 16 -8.9 64 64 N 7 11 30.36 1028 10 16 0.00 0.00
2:55 pm 14:55 Cloudy 27 -2.8 17 -8.6 65 65 NNW 5 7 30.36 1028 10 16 0.00 0.00
3:15 pm 15:15 Cloudy 27 -2.7 17 -8.6 64 64 NW 7 11 30.36 1028 10 16 0.00 0.00
3:35 pm 15:35 Cloudy 27 -2.6 17 -8.4 65 65 NW 8 13 30.39 1029 10 16 0.00 0.00
3:55 pm 15:55 Cloudy 27 -2.7 17 -8.3 66 66 NW 8 13 30.39 1029 10 16 0.00 0.00
4:15 pm 16:15 Cloudy 27 -2.7 17 -8.3 66 66 NNW 7 11 30.39 1029 10 16 0.00 0.00
4:35 pm 16:35 Cloudy 27 -2.6 18 -7.9 67 67 NNW 8 13 30.39 1029 10 16 0.00 0.00
4:55 pm 16:55 Cloudy 27 -2.6 18 -8 67 67 NNW 6 9 30.39 1029 10 16 0.00 0.00
5:15 pm 17:15 Cloudy 27 -2.6 18 -8 67 67 NNW 7 11 30.39 1029 10 16 0.00 0.00
5:35 pm 17:35 Cloudy 27 -2.6 18 -8 67 67 NW 6 9 30.39 1029 10 16 0.00 0.00
5:55 pm 17:55 Cloudy 27 -2.6 18 -8 67 67 NW 3 6 30.39 1029 10 16 0.00 0.00
6:15 pm 18:15 Cloudy 27 -2.6 18 -7.8 68 68 NW 3 6 30.39 1029 10 16 0.00 0.00
6:35 pm 18:35 Cloudy 27 -2.6 18 -7.9 67 67 WNW 5 7 30.39 1029 10 16 0.00 0.00
6:55 pm 18:55 Cloudy 27 -2.6 18 -7.7 68 68 WNW 3 6 30.39 1029 10 16 0.00 0.00
7:15 pm 19:15 Cloudy 27 -2.6 18 -7.7 68 68 NW 3 6 30.39 1029 10 16 0.00 0.00
7:35 pm 19:35 Cloudy 27 -2.7 19 -7.5 70 70 NNW 5 7 30.39 1029 10 16 0.00 0.00
7:55 pm 19:55 Cloudy 27 -2.6 19 -7.5 69 69 NW 5 7 30.39 1029 10 16 0.00 0.00
8:15 pm 20:15 Cloudy 27 -2.6 19 -7.5 69 69 NNW 3 6 30.42 1030 10 16 0.00 0.00
8:35 pm 20:35 Cloudy 27 -2.6 19 -7.3 70 70 NNW 3 6 30.39 1029 10 16 0.00 0.00
8:55 pm 20:55 Cloudy 27 -2.6 19 -7.4 70 70 NW 5 7 30.42 1030 10 16 0.00 0.00
9:15 pm 21:15 Cloudy 27 -2.8 18 -7.6 70 70 WNW 5 7 30.42 1030 10 16 0.00 0.00
9:35 pm 21:35 Cloudy 27 -2.8 18 -7.7 69 69 N 3 6 30.42 1030 10 16 0.00 0.00
9:55 pm 21:55 Cloudy 27 -2.8 19 -7.5 70 70 Calm 30.42 1030 10 16 0.00 0.00
10:15 pm 22:15 Cloudy 27 -2.8 19 -7.3 71 71 WNW 3 6 30.42 1030 10 16 0.00 0.00
10:35 pm 22:35 Cloudy 27 -2.8 19 -7.5 70 70 NW 6 9 30.42 1030 10 16 0.00 0.00
10:55 pm 22:55 Cloudy 27 -2.9 18 -7.6 70 70 NW 3 6 30.42 1030 10 16 0.00 0.00
11:15 pm 23:15 Cloudy 27 -2.8 19 -7.3 71 71 Calm 30.42 1030 10 16 0.00 0.00
11:35 pm 23:35 Cloudy 27 -2.9 19 -7.3 72 72 NW 5 7 30.42 1030 10 16 0.00 0.00
11:55 pm 23:55 Cloudy 27 -3 19 -7.5 71 71 Calm 30.42 1030 10 16 0.00 0.00

Powered by AerisWeather